Terug naar catalogus

STARLINK-35069

ActiefCommunicatieVLEO
NORAD 66268·PAYLOAD·🇺🇸 United States

Gelanceerd Oct 31, 2025 vanaf Vandenberg Space Force Base

Loading…

Volgende Passages (komende 24 uur)

TLE

VersSource: CelesTrak SupGP

Epoch: Sep 14, 2026, 21:19 UTC

1 66268C 25247D   26257.88868056  .00033131  00000+0  97909-3 0  2573
2 66268  53.1606  29.6665 0001215  70.5331 257.5872 15.34366541    18

Volg STARLINK-35069 in realtime met AllMySat

Download on the App Store